[ ตารางข้อมูล ] [ Min-Max ] [ วันนี้2 ] [ วันนี้4 ] [ เทียบ-A 3วัน ] [ เทียบ-B 4วัน ]   

วันนี้2   [ ◀ ช่วงเก่ากว่า ] [ ช่วงที่ 55 ] [ ช่วงใหม่กว่า ▶ ] [ ล่าสุด ]    [ 3 ชั่วโมง ] [ 6 ชั่วโมง ] [ 12 ชั่วโมง ] [ 24 ชั่วโมง ]   วันนี้2

อุณภูมิในตู้ Knockdown4529  ราย 6 ชั่วโมง  ที่วัดได้ ในช่วงวันเวลา 19/08/2026 (17:36) ถึง 19/08/2026 (23:36) 
ความชื้นในตู้ Knockdown4529  ราย 6 ชั่วโมง  ที่วัดได้ ในช่วงวันเวลา 19/08/2026 (17:36) ถึง 19/08/2026 (23:36) 
การใช้ไฟฟ้าในตู้ Knockdown4529  ราย 6 ชั่วโมง  ที่วัดได้ ในช่วงวันเวลา 19/08/2026 (17:36) ถึง 19/08/2026 (23:36) 

  DS18B20SHTC3PZEM-004TWiFi 
IDDate d/m/Y & Timedata1
สูง
data2
ต่ำ
data3
นอก
temp
pcb
hum
pcb
VoltAmpWattrssiTime
 14184  19/08/2026 23:36:21  31.1  31.2  28.0  32.0  68.2  228.0  0.04  4.6  -78  23:36 
 14183  19/08/2026 23:31:37  31.1  31.2  28.0  32.1  68.2  227.7  0.04  4.6  -76  23:31 
 14182  19/08/2026 23:26:54  31.1  31.2  28.0  32.1  68.2  228.0  0.04  4.6  -77  23:26 
 14181  19/08/2026 23:22:11  31.1  31.2  28.1  32.1  68.2  228.0  0.04  4.6  -78  23:22 
 14180  19/08/2026 23:17:27  31.2  31.3  28.1  32.1  68.2  227.4  0.04  4.6  -78  23:17 
 14179  19/08/2026 23:12:44  31.2  31.3  28.3  32.3  68.3  227.1  0.04  4.6  -76  23:12 
 14178  19/08/2026 23:08:01  31.2  31.4  28.3  32.1  68.2  227.1  0.04  4.6  -78  23:08 
 14177  19/08/2026 23:03:18  31.2  31.4  28.4  32.1  68.0  227.9  0.04  4.6  -78  23:03 
 14176  19/08/2026 22:58:34  31.3  31.4  28.4  32.2  68.0  229.6  0.04  4.6  -78  22:58 
 14175  19/08/2026 22:53:51  31.3  31.4  28.4  32.3  68.0  229.1  0.04  4.6  -79  22:53 
 14174  19/08/2026 22:49:07  31.4  31.5  28.2  32.3  68.1  229.0  0.04  4.6  -77  22:49 
 14173  19/08/2026 22:44:24  31.4  31.5  28.3  32.1  68.0  229.3  0.04  4.6  -79  22:44 
 14172  19/08/2026 22:39:41  31.3  31.5  28.4  32.3  68.0  230.4  0.04  4.6  -79  22:39 
 14171  19/08/2026 22:34:57  31.4  31.6  28.4  32.3  68.1  229.0  0.04  4.6  -78  22:34 
 14170  19/08/2026 22:30:14  31.4  31.6  28.5  32.4  68.0  230.0  0.04  4.6  -78  22:30 
 14169  19/08/2026 22:25:30  31.4  31.6  28.7  32.3  68.1  228.5  0.04  4.6  -78  22:25 
 14168  19/08/2026 22:20:47  31.4  31.6  28.6  32.5  68.0  229.8  0.04  4.6  -77  22:20 
 14167  19/08/2026 22:16:03  31.5  31.6  28.7  32.6  68.0  228.7  0.04  4.6  -78  22:16 
 14166  19/08/2026 22:11:20  31.6  31.7  28.8  32.5  68.0  228.1  0.04  4.6  -77  22:11 
 14165  19/08/2026 22:06:37  31.6  31.7  28.9  32.5  67.8  228.6  0.04  4.6  -77  22:06 
 14164  19/08/2026 22:01:50  31.6  31.8  28.7  32.6  67.8  230.0  0.04  4.6  -77  22:01 
 14163  19/08/2026 21:57:07  31.6  31.8  28.7  32.7  67.9  232.0  0.04  4.6  -78  21:57 
 14162  19/08/2026 21:52:22  31.6  31.8  28.9  32.6  67.8  232.2  0.04  4.6  -78  21:52 
 14161  19/08/2026 21:47:39  31.7  31.8  28.8  32.7  67.8  231.6  0.04  4.6  -77  21:47 

Data every 5 minute.


ใช้เวลาประมวลผล 0.03721 วินาที